Regional Weather Roundup
Issued by NWS Mt. Holly, NJ

Current Version | Previous Version | Text Only | Print | Product List | Glossary Off
Versions: 1 2 3 4 5 6 7 8 9 10 11 12 13 14 15 16 17 18 19 20 21 22 23 24 25 26 27

000
ASUS41 KPHI 271212
RWRPHI

REGIONAL WEATHER ROUNDUP
NATIONAL WEATHER SERVICE MOUNT HOLLY NJ
800 AM EDT TUE SEP 27 2016

NOTE:  "FAIR" INDICATES FEW OR NO CLOUDS BELOW 12,000 FEET WITH NO
SIGNIFICANT WEATHER AND/OR OBSTRUCTIONS TO VISIBILITY.

 * = STATION DOES NOT REPORT PRECIPITATION (E.G. RAIN, SNOW, ETC.)
        OR FOG.

NJZ015>026-271300-
SOUTHERN NEW JERSEY

CITY           SKY/WX    TMP DP  RH WIND       PRES   REMARKS
POMONA         LGT RAIN  67  65  93 W3        29.94S
6HR MIN TEMP:  67; 6HR MAX TEMP:  71; 6HR PCP:  0.13;

WILDWOOD*      LGT RAIN  67  66  97 CALM      29.95S
MILLVILLE      CLOUDY    66  66 100 CALM      29.94R
WRIGHTSTOWN    CLOUDY    66  64  94 VRB5      29.91S
MOUNT HOLLY    CLOUDY    65  63  93 CALM      29.93S
TRENTON        CLOUDY    64  61  90 SW3       29.93R
6HR MIN TEMP:  64; 6HR MAX TEMP:  65; 6HR PCP:  0.05;


$$
NJZ001>014-271300-
NORTHERN NEW JERSEY

CITY           SKY/WX    TMP DP  RH WIND       PRES   REMARKS
SUSSEX         CLOUDY    59  59 100 SW3       29.93R FOG
ANDOVER*         N/A     59  58  96 CALM      29.93R
MORRISTOWN     PTSUNNY   63  61  94 SW3       29.93R
NEWARK         CLOUDY    65  62  90 SW7       29.92R
TETERBORO      PTSUNNY   65  61  87 W3        29.90S
CALDWELL       CLOUDY    63  61  93 SW3       29.92S
SOMERVILLE     PTSUNNY   62  60  93 CALM      29.91R FOG
ALLAIRE*       CLOUDY    65  64  97 W6        29.94R
TOMS RIVER*    CLOUDY    66  65  96 VRB6      29.94R

$$
PAZ043-044-047-054-055-060>062-066>071-271300-
EASTERN PENNSYLVANIA

CITY           SKY/WX    TMP DP  RH WIND       PRES   REMARKS
PHILADELPHIA   CLOUDY    66  62  87 NW5       29.94S
6HR MIN TEMP:  66; 6HR MAX TEMP:  69; 6HR PCP:  0.11;

NORTH PHILA    CLOUDY    66  63  90 NW5       29.94S
BLUE BELL*     CLOUDY    61  61 100 CALM      29.93S
DOYLESTOWN     CLOUDY    63  62  97 CALM      29.93R
QUAKERTOWN*    CLOUDY    59  59 100 CALM      29.95R
PERKASIE*      FOG       59  59 100 CALM      29.95R VSB 1/4
POTTSTOWN      CLOUDY    60  60 100 CALM      29.96R FOG
LANCASTER      FOG       60  60 100 W7        29.96R VSB 1/4
COATESVILLE    CLOUDY    61  61 100 W3        29.96R FOG
READING        CLOUDY    60  58  92 NW6       29.94R FOG
6HR MIN TEMP:  59; 6HR MAX TEMP:  62; 6HR PCP: TRACE;

ALLENTOWN      CLOUDY    61  58  90 W3        29.94R FOG
6HR MIN TEMP:  59; 6HR MAX TEMP:  61; 6HR PCP:  0.09;

MOUNT POCONO   CLOUDY    55  53  93 NW7       29.95R
6HR MIN TEMP:  55; 6HR MAX TEMP:  56; 6HR PCP: TRACE;

HAZLETON       CLOUDY    55  54  94 W3        29.99R FOG
LEHIGHTON      FOG       54  54 100 CALM      29.95R VSB 1/2
WILKES BARRE   MOSUNNY   58  57  97 SW3       29.94R FOG

$$
DEZALL-MDZ008-012-015-019-020-271300-
DELAWARE AND EASTERN MARYLAND

CITY           SKY/WX    TMP DP  RH WIND       PRES   REMARKS
WILMINGTON     CLOUDY    65  63  93 W5        29.95R
6HR MIN TEMP:  65; 6HR MAX TEMP:  67; 6HR PCP:  0.14;

DOVER          LGT RAIN  66  66 100 W5        29.94R
GEORGETOWN     LGT RAIN  68  66  93 W5        29.97R
6HR MIN TEMP:  68; 6HR MAX TEMP:  69; 6HR PCP:  0.19;

EASTON         CLOUDY    68  66  94 CALM      29.99R FOG
ABERDEEN       CLOUDY    64  64 100 CALM      29.94S
PATUXENT       LGT RAIN  68  65  90 CALM      29.97R
OCEAN CITY     RAIN      70  68  93 SW9       29.96S
WALLOPS ISLAND HVY RAIN  70  69  97 SW7       29.97S VSB 1
CAMBRIDGE      CLOUDY    66  64  94 CALM      29.96R
SALISBURY      LGT RAIN  69  68  96 W5        29.96R FOG

$$
PAZ001-021-NYZ056-072-MDZ011-DCZ001-271300-
OTHER NEARBY LOCATIONS

CITY           SKY/WX    TMP DP  RH WIND       PRES   REMARKS
HARRISBURG     MOSUNNY   60  59  96 W3        29.95R
STATE COLLEGE  CLEAR     52  50  93 SW5       29.97R
WILLIAMSPORT   FOG       56  56 100 N3        29.95R VSB 3/4
BINGHAMTON     SUNNY     50  50 100 CALM      29.93S
NEW YORK CITY  CLOUDY    64  61  90 W3        29.94R
BALTIMORE      CLOUDY    65  64  97 SW3       29.95S
WASHINGTON DC  CLOUDY    67  64  90 N9        29.98R

$$




USA.gov is the U.S. government's official web portal to all federal, state and local government web resources and services.